CZ-6A DEB, 61377

Orbit data source: Space-Track

CZ-6A DEB, 61377 is space debris in LEO originally from a launch on Tue, 06 Aug 2024 UTC launched from the Taiyaun Space Center, China (TSC). Debris objects in space refer to the collection of defunct objects orbiting the Earth. Examples of debris include non-operational satellites, rocket bodies, and fragments generated from explosions, collisions, or faulty payload assembly.

Loading next visibility...
Identifier
61377, 2024-140WS
Orbit
LEO
Country
Flag of CNCN / PRC
Related business
Manufacturer
SAST
Mission
Spacecraft
Bus & Motor
Unknown
Mass
Unknown
Launch date (UTC)
2024-08-06 (1 year ago)
Launch vehicle
Unknown
Launch site
Taiyaun Space Center, China (TSC)
Object type
Payload
Rocket body
Debris
Shape & HBR
Unknown shape, 0.1 m
Radar Cross Section
Small (<0.1 m²)

Expand to show TLE details & history
Last TLE update: 2 days ago

TLE from 2 days ago
0 CZ-6A DEB
1 61377U 24140WS  25311.97002390  .00069541  00000-0  40455-2 0  9992
2 61377  89.2237 307.0146 0073944 196.8904 162.9874 15.09440036 63954
Epoch: 2025-11-07T23:16Z
TLE epoch observation values (Epoch: 2025-11-07T23:16:50.064Z)
Latitude
-0.00005°
Longitude
-89.60036°
Altitude
590.036 km
Speed
7.538 km/s
True Right ascension
20h 28m 03s
True Declination
0° 00' 00"
Sunlit
Object was in daylight at epoch
Visualization orbit readout
Latitude
Unknown
Longitude
Unknown
Altitude
Unknown
Speed
Unknown
Apparent Right ascension
Unknown
Apparent Declination
Unknown
Sunlit
N/A
Visualization observer readout
Local Sidereal Time
20:05:15
Azimuth
Unknown
Elevation
Unknown
Doppler factor
Unknown
Orbital elements
Apogee altitude
585.849 km
Perigee altitude
483.616 km
Semi-major axis
6,912.87 km
Eccentricity
0.00739
Inclination
89.2237°
RAAN
307.0146°
Arg. of periapsis
196.8904°
True anomaly
163.23314°
Mean anomaly
162.9874°
Eccentric anomaly
163.11049°
Mean motion
3.77621 °/min
Orbital period
95.33 mins
BSTAR
0.0040455
Loading maneuver chart data...
Computing Atmospheric mass density...

Documentation

Showing up to 5 results
|